Weather Service Report


995 
ASUS44 KFWD 011715
RWRTX 
NORTH TEXAS HOURLY WEATHER ROUNDUP
NATIONAL WEATHER SERVICE FORT WORTH TX
1200 PM CDT WED OCT 01 2014

NOTE: "FAIR" INDICATES FEW OR NO CLOUDS BELOW 12,000 FEET WITH NO
SIGNIFICANT WEATHER AND/OR OBSTRUCTIONS TO VISIBILITY.

TXZ118-119-011800-
DALLAS/FORT WORTH METROPLEX
  
CITY           SKY/WX    TMP DP  RH WIND       PRES   REMARKS
DFW AIRPORT    MOSUNNY   85  69  58 S14       29.82F                  
DALLAS LOVE    MOSUNNY   86  69  56 S14       29.82F HX  90           
FTW MEACHAM    MOSUNNY   88  69  53 MISG      29.81F HX  92           
DAL-EXECUTIVE  MOSUNNY   86  69  56 S9G17     29.83F HX  90           
FTW-ALLIANCE   MOSUNNY   87  68  52 S14G20    29.80F HX  90           
FTW-NAS-JRB    MOSUNNY   90  67  46 S13       29.85F HX  93           
FTW-SPINKS     PTSUNNY   90  68  48 S8G17     29.84F HX  93           
ARLINGTON      MOSUNNY   85  68  56 SE18      29.82F                  
GRAND PRAIRIE  SUNNY     81  68  65 MISG      29.85S                  
ADDISON        MOSUNNY   84  68  58 S13G23    29.84F                  
MESQUITE       PTSUNNY   84  68  58 S10G18    29.85S                  
LANCASTER      PTSUNNY   82  67  61 S12       29.85F                  
$$

TXZ091>094-102>105-117-120-121-131>134-011800-
NORTH CENTRAL TEXAS
  
CITY           SKY/WX    TMP DP  RH WIND       PRES   REMARKS
SHRMAN/DENISON SUNNY     84  69  59 S10       29.84S HAZE             
GAINESVILLE    SUNNY     84  69  61 S9        29.84F                  
BOWIE          SUNNY     86  67  54 S13       29.82S                  
BRIDGEPORT     SUNNY     87  64  45 SW9       29.83S                  
DECATUR        MOSUNNY   84  67  56 S10       29.82F                  
DENTON         SUNNY     85  69  58 S12       29.81F                  
MCKINNEY       MOSUNNY   85  69  58 S15       29.83S                  
GREENVILLE     PTSUNNY   86  68  54 S10G17    29.85F                  
ROCKWALL       PTSUNNY   85  70  61 S8G17     29.83F                  
TERRELL        CLOUDY    85  70  60 S15       29.85S                  
WAXAHACHIE     PTSUNNY   84  70  63 S12G17    29.85F                  
CLEBURNE       MOSUNNY   86  72  62 SE10G17   29.84F HX  92           
GRANBURY       SUNNY     90  64  41 S9        29.82F HX  92           
$$

TXZ083>090-098>101-113>116-127>130-139>142-154-155-011800-
WESTERN NORTH TEXAS
  
CITY           SKY/WX    TMP DP  RH WIND       PRES   REMARKS
WICHITA FALLS  SUNNY     87  65  47 S20       29.77S                  
WF-KICKAPOO    SUNNY     87  63  44 SW14G20   29.80S                  
VERNON         SUNNY     87  63  44 SW16G22   29.77S                  
ABILENE        SUNNY     84  66  54 S17       29.83F                  
ABILENE-DYESS  SUNNY     84  66  55 S15       29.82S                  
BRECKENRIDGE     N/A     88  64  44 SW12      29.81F HAZE             
GRAHAM         SUNNY     88  65  46 S7        29.79F                  
MINERAL WELLS  SUNNY     88  65  46 S13G22    29.80S HX  90           
STEPHENVILLE   SUNNY     87  65  48 S9G17     29.86S                  
COMANCHE       SUNNY     86  65  50 S9G17     29.84S                  
BROWNWOOD      SUNNY     84  68  58 S7        29.84F                  
COLEMAN        SUNNY     84  65  52 S12G17    29.85F                  
BRADY          SUNNY     84  66  54 VRB7      29.85F                  
$$

TXZ143>147-156>162-174-175-011800-
CENTRAL TEXAS
  
CITY           SKY/WX    TMP DP  RH WIND       PRES   REMARKS
WACO           MOSUNNY   85  70  60 S8        29.84S                  
WACO-TSTC      PTSUNNY   84  72  65 S8        29.84F                  
WACO-MCGREGOR  PTSUNNY   86  66  51 S14       29.85S                  
HILLSBORO      PTSUNNY   85  68  57 S13G18    29.85S                  
CORSICANA      CLOUDY    84  69  60 S9        29.86S                  
MEXIA          CLOUDY    81  71  71 SW6       29.85S                  
HEARNE         MOSUNNY   83  71  67 S5        29.84F                  
CAMERON        PTSUNNY   86  72  62 S7        29.84S HX  92           
TEMPLE         PTSUNNY   82  66  57 S9        29.83F                  
KILLEEN        MOSUNNY   84  68  58 S13       29.84S                  
KILLEEN-SKYLRK PTSUNNY   86  68  54 S12       29.84F                  
FORT HOOD      MOSUNNY   84  70  61 S10G16    29.84                   
GATESVILLE     MOSUNNY   84  70  61 S7        29.86F                  
HAMILTON       MOSUNNY   86  66  50 S13G22    29.86S                  
LAMPASAS       SUNNY     82  70  68 S8        29.84F                  
$$

TXZ095>097-106>112-122>126-135>138-148>153-164>167-011800-
EAST TEXAS
  
CITY           SKY/WX    TMP DP  RH WIND       PRES   REMARKS
PARIS          CLOUDY    81  66  61 S13       29.87S                  
SULPHUR SPRNGS CLOUDY    82  70  66 S12       29.88S                  
MOUNT PLEASANT CLOUDY    82  73  76 S9        29.88F                  
GILMER         PTSUNNY   84  73  70 S6        29.88F HX  91           
MINEOLA        PTSUNNY   84  73  70 SE8       29.87S HX  91           
TYLER          NOT AVBL                                               
LONGVIEW       PTSUNNY   87  72  60 SE9       29.86F HX  93           
MARSHALL       CLOUDY    85  75  71 S9        29.91S HX  93           
ATHENS         CLOUDY    81  72  74 S7        29.86S                  
PALESTINE      PTSUNNY   83  73  73 SW6       29.88S                  
JACKSONVILLE   SUNNY     85  73  66 S6        29.89F HX  91           
HENDERSON      CLOUDY    83  73  71 SE9       29.88S                  
NACOGDOCHES    MOSUNNY   82  73  74 S10       29.88S                  
LUFKIN         MOSUNNY   87  74  64 SE7       29.86F HX  95           
$$

SUPPLEMENTAL OBSERVATIONS (CENTRAL)
  
CITY           SKY/WX    TMP DP  RH WIND       PRES   REMARKS
LAKE TEXOMA      N/A     82  70  65 S8          N/A                   
CADDO GRASSLND   N/A     82  72  69 S10         N/A                   
PAT MAYSE LAKE   N/A     79  70  73 SE13        N/A                   
ATHENS           N/A     84  68  58 S10         N/A                   
MCGREGOR         N/A     84  66  54 S9          N/A                   
$$

SUPPLEMENTAL OBSERVATIONS (WEST)
  
CITY           SKY/WX    TMP DP  RH WIND       PRES   REMARKS
MILLERS CREEK    N/A     86  68  54 SW13        N/A                   
LBJ GRASSLAND    N/A     88  68  51 S9          N/A  HX  91           
HAMBY            N/A     84  66  54 SW20        N/A                   
IVIE RESERVOIR   N/A     86  66  51 S8          N/A                   
COLORADO BEND    N/A     82  66  57 S10         N/A                   
$$

SUPPLEMENTAL OBSERVATIONS (EAST)
  
CITY           SKY/WX    TMP DP  RH WIND       PRES   REMARKS
TEXARKANA        N/A     82  72  69 S3          N/A                   
LINDEN           N/A     79  73  83 E2          N/A                   
CADDO LAKE       N/A     84  72  65 SW2         N/A                   
GILMER           N/A     84  72  65 S6          N/A                   
HENDERSON        N/A     84  72  65 S8          N/A                   
LUFKIN           N/A     84  72  65 MISG        N/A                   
N SABINE NF      N/A     79  75  89 MISG        N/A                   
S SABINE NF      N/A     82  79  89 E2          N/A  HX  93           
$$

SUPPLEMENTAL OBSERVATIONS ARE A COLLECTION OF AUTOMATED INSTRUMENTS
THAT ARE MAINTAINED BY A VARIETY OF FEDERAL AND STATE AGENCIES. 
CERTAIN ELEMENTS...SUCH AS HUMIDITY VALUES AND SUSTAINED WIND 
SPEEDS...MAY BE APPROXIMATED.


Return to Home page


Western Regional Climate Center, wrcc@dri.edu